Simultaneous Nadir Overpasses (SNOs) Predictions

Prediction of SNOs between GOES-15 and TERRA Satellite Orbit:

Table of predicted SNOs for the next 14.0 days since TLE Epoch: 8/7/2012
Index Date Time (GOES-15) GOES-15 Lat,Lon TERRA Lat,Lon Distance(km) Time Diff (sec)
1 08/07/2012 07:15:31 -0.20,-135.08 0.48,-131.84 367.74 80
2 08/07/2012 19:39:26 0.24,-135.08 0.62,-137.00 217.44 80
3 08/09/2012 19:24:32 0.23,-135.03 0.04,-134.02 113.49 80
4 08/10/2012 07:48:35 -0.27,-135.00 -1.14,-139.22 478.88 80
5 08/11/2012 19:12:19 0.23,-134.97 -0.60,-131.06 443.81 80
6 08/12/2012 07:36:21 -0.27,-134.94 -0.55,-136.24 148.75 80
7 08/14/2012 07:21:29 -0.26,-134.87 0.10,-133.28 180.77 80
8 08/14/2012 19:45:22 0.29,-134.86 1.05,-138.43 405.39 80
9 08/16/2012 19:33:08 0.29,-134.79 0.44,-135.46 76.42 80
10 08/18/2012 19:18:14 0.28,-134.71 -0.17,-132.49 252.08 80
11 08/19/2012 07:42:17 -0.31,-134.68 -0.97,-137.67 340.58 80




NCC Satellite Simultaneous Nadir Overpasses (SNOs) Prediction Service
